Location: Del Amo
(33.8464°N, 118.2104°W)
Time: 16:38:57
(UTC+00:00)

Oscar 11 - Visible Passes

Search period start: 03 October 2024 00:00
Search period end: 13 October 2024 00:00
Orbit: 598 x 612 km, 97.7° (Epoch: 02 October)

Date Brightness Start Highest point End Pass type
(mag) Time Alt. Az. Time Alt. Az. Time Alt. Az.
03 Oct 10.1 10:45:00 10° NE 10:45:23 12° NE 10:45:23 12° NE visible
03 Oct 8.7 12:20:37 10° NNW 12:22:14 18° NW 12:22:14 18° NW visible
04 Oct 9.8 10:57:23 10° NE 10:58:11 14° NE 10:58:11 14° NE visible
04 Oct 9.0 12:33:55 10° NNW 12:35:03 14° NW 12:35:03 14° NW visible
05 Oct 9.5 11:09:55 10° NNE 11:10:59 17° NNE 11:10:59 17° NNE visible
05 Oct 9.2 12:47:36 10° NW 12:47:50 11° NW 12:47:50 11° NW visible
06 Oct 9.3 11:22:33 10° NNE 11:23:46 19° NNE 11:23:46 19° NNE visible
07 Oct 9.1 11:35:17 10° N 11:36:31 19° N 11:36:31 19° N visible
08 Oct 9.1 11:48:04 10° N 11:49:16 18° N 11:49:16 18° N visible
09 Oct 9.1 12:00:57 10° N 12:01:59 16° N 12:01:59 16° N visible
10 Oct 9.2 12:13:55 10° NNW 12:14:42 14° NNW 12:14:42 14° NNW visible
11 Oct 9.3 12:27:00 10° NNW 12:27:23 12° NNW 12:27:23 12° NNW visible
